星链-67536(STARLINK-67536)

导读

STARLINK-67536是美国于2026年1月22日发射的卫星,隶属于SpaceX星链星座网络。星链系统旨在为全球提供高速低延迟宽带互联网服务,该卫星的入轨将进一步扩充星座规模,提升全球网络覆盖密度与服务能力,延续星链项目持续推进部署的节奏。

Basic Information
目录编号:
67536
目录名称:
STARLINK-36572
国际标识:
2026-014E
轨道中心:
EARTH
卫星名称:
星链-67536
卫星全名:
星链-67536(STARLINK-67536)
卫星状态:
在轨 (已飞行226 天)
发射日期:
2026-01-22 UTC
国别 :
美国 (US)
星等 :
--
Orbit Information
数据来源 国际轨道数据
星历时间: 2026-09-05T13:09:14+0800
8小时前
查看轨道信息
半长轴: 6843.708km
偏心率: 0.0001825
轨道倾角: 97.285°
近地点辐角 89.310°
升交点赤经 133.764°
平近点角 270.835°
近地点: 464.322km
远地点: 466.82km
周期: 93.907分钟
每日圈数: 15.334357
Detailed Information
固有亮度:
5
最大亮度:
2.5
卫星平台:
Starlink V1.0
覆盖范围:
全球
运营商:
太空探索技术公司
运营商所在国:
美国
制造商(研发单位):
太空探索技术公司
制造商所在国:
美国
使用方式:
暂无
Satellite Introduction
Starlink 计划是 SpaceX 推出的全球卫星互联网项目,通过发射低轨道卫星,为全球尤其是偏远地区提供高速、低延迟的互联网服务。自 2019 年起,Starlink 已部署数千颗卫星,旨在缩小全球数字鸿沟,推动互联网普及。该项目还为军事、航空等行业提供通信支持,带来广泛经济效益。
2D Orbit Map
3D Orbit Map
Orbit Altitude Analysis Chart
Orbit Inclination Analysis Chart
Orbit Comprehensive Analysis Chart
View Comprehensive Chart
Conjunction Data List
Event ID Objects TCA Miss Dist (km) Collision Risk Probability Collision Risk Index (CRI) Action
CDM_260907-161506-753606-789321
2026-09-07T
16:15:34+0000
0.990 km
远距离
1.486081E-5 中风险 0.58
CDM_260907-152806-753606-789321
2026-09-07T
15:28:35+0000
1.689 km
极远距离
2.552718E-6 低风险 0.43
CDM_260906-171005-721706-753623
2026-09-06T
17:10:34+0000
2.361 km
极远距离
1.98521E-6 低风险 0.41
CDM_260908-010405-917506-753621
EXO-0 (59175)
2026-09-08T
01:04:55+0000
2.385 km
极远距离
1.935032E-6 低风险 0.41
CDM_260906-113306-026306-753622
2026-09-06T
11:33:02+0000
2.668 km
极远距离
1.555125E-6 低风险 0.39
CDM_260907-135406-753606-789321
2026-09-07T
13:54:37+0000
2.065 km
极远距离
1.513582E-6 低风险 0.39
CDM_260906-091302-678106-753621
2026-09-06T
09:13:53+0000
2.826 km
极远距离
1.405655E-6 低风险 0.38
CDM_260906-174605-480606-753621
2026-09-06T
17:46:49+0000
2.863 km
极远距离
1.390299E-6 低风险 0.38
CDM_260903-062005-083406-753621
2026-09-03T
06:20:09+0000
2.315 km
极远距离
1.354161E-6 低风险 0.38
CDM_260907-144106-753606-789321
2026-09-07T
14:41:36+0000
2.225 km
极远距离
1.28496E-6 低风险 0.37